TimeCST,TemperatureF,Dew PointF,Humidity,Sea Level PressureIn,VisibilityMPH,Wind Direction,Wind SpeedMPH,Gust SpeedMPH,PrecipitationIn,Events,Conditions,WindDirDegrees,DateUTC
12:53 AM,23.0,19.9,88,30.04,10.0,NNW,10.4,-,N/A,,Overcast,340,2013-02-27 06:53:00
1:53 AM,23.0,19.9,88,30.06,10.0,NNW,11.5,-,N/A,,Overcast,330,2013-02-27 07:53:00
2:53 AM,21.9,19.0,89,30.05,10.0,NNW,12.7,-,N/A,,Overcast,330,2013-02-27 08:53:00
3:13 AM,21.2,19.4,93,29.97,10.0,NW,15.0,-,N/A,,Scattered Clouds,320,2013-02-27 09:13:00
3:53 AM,21.2,19.4,93,29.97,10.0,NW,16.1,-,N/A,,Clear,320,2013-02-27 09:53:00
4:53 AM,23.0,19.0,85,30.06,10.0,NNW,17.3,-,N/A,,Clear,330,2013-02-27 10:53:00
5:53 AM,23.0,19.0,85,30.08,10.0,NNW,16.1,-,N/A,,Scattered Clouds,330,2013-02-27 11:53:00
6:53 AM,24.1,18.0,77,30.10,10.0,NNW,16.1,-,N/A,,Partly Cloudy,330,2013-02-27 12:53:00
7:53 AM,25.0,17.1,72,30.12,10.0,NNW,16.1,-,N/A,,Clear,330,2013-02-27 13:53:00
8:53 AM,26.1,18.0,71,30.16,10.0,NNW,15.0,-,N/A,,Clear,330,2013-02-27 14:53:00
9:53 AM,28.0,21.0,75,30.17,10.0,NNW,19.6,-,N/A,,Clear,340,2013-02-27 15:53:00
10:53 AM,30.0,25.0,82,30.18,7.0,NNW,21.9,-,N/A,,Partly Cloudy,330,2013-02-27 16:53:00
11:10 AM,30.2,24.8,80,30.10,7.0,NNW,28.8,33.4,N/A,,Mostly Cloudy,330,2013-02-27 17:10:00
11:53 AM,33.1,26.1,75,30.18,8.0,NNW,24.2,32.2,N/A,,Mostly Cloudy,330,2013-02-27 17:53:00
12:53 PM,33.1,26.1,75,30.18,9.0,NNW,27.6,31.1,N/A,,Mostly Cloudy,340,2013-02-27 18:53:00
1:32 PM,33.8,24.8,70,30.11,9.0,NNW,21.9,35.7,N/A,,Scattered Clouds,340,2013-02-27 19:32:00
1:42 PM,33.8,26.6,75,30.11,9.0,NNW,19.6,28.8,N/A,,Mostly Cloudy,340,2013-02-27 19:42:00
1:53 PM,34.0,26.1,73,30.18,9.0,NNW,20.7,27.6,N/A,,Mostly Cloudy,340,2013-02-27 19:53:00
2:53 PM,35.1,26.1,70,30.18,10.0,NNW,23.0,-,N/A,,Overcast,330,2013-02-27 20:53:00
3:53 PM,33.1,27.0,78,30.19,10.0,NNW,18.4,-,N/A,,Overcast,330,2013-02-27 21:53:00
4:39 PM,33.8,26.6,75,30.12,10.0,NNW,21.9,-,N/A,,Overcast,330,2013-02-27 22:39:00
4:53 PM,34.0,27.0,75,30.20,10.0,NNW,21.9,-,N/A,,Overcast,330,2013-02-27 22:53:00
5:14 PM,33.8,26.6,75,30.13,10.0,NNW,17.3,27.6,N/A,,Overcast,330,2013-02-27 23:14:00
5:53 PM,33.1,27.0,78,30.21,10.0,NNW,16.1,-,N/A,,Overcast,330,2013-02-27 23:53:00
6:18 PM,33.8,26.6,75,30.14,10.0,NNW,12.7,-,N/A,,Overcast,330,2013-02-28 00:18:00
6:53 PM,32.0,26.1,79,30.22,10.0,NW,18.4,-,N/A,,Overcast,320,2013-02-28 00:53:00
7:53 PM,30.9,24.1,76,30.22,10.0,NNW,17.3,25.3,N/A,,Overcast,330,2013-02-28 01:53:00
8:53 PM,30.0,24.1,79,30.23,10.0,NNW,20.7,-,N/A,,Overcast,330,2013-02-28 02:53:00
9:53 PM,30.0,24.1,79,30.23,10.0,NNW,21.9,27.6,N/A,,Overcast,340,2013-02-28 03:53:00
10:53 PM,30.0,24.1,79,30.22,10.0,NNW,18.4,24.2,N/A,,Overcast,340,2013-02-28 04:53:00
11:53 PM,30.2,24.8,80,30.15,9.0,NNW,16.1,-,N/A,,Overcast,340,2013-02-28 05:53:00